STARLINK-1323 (45553 NORAD) Tracking and Keplerian Element Data

This shows tracking and keplerian element data for the satellite.

Feedback or suggestion? Click here.




ElementValue
Catalog45553
NameSTARLINK-1323
Epoch Orbit1225
Epoch Day187.50002315
Epoch Year2020
RAAN37.3212
Inclination52.996
Eccentricity0.0001138
Argument of Perigee61.7517
Mean Anonmoly269.6748
Mean Motion15.59164185
Decay Rate-0.01185555
L11 45553U 20025Y 20187.50002315 -.01185555 00000-0 -16523-1 0 9995
L22 45553 52.9960 37.3212 0001138 61.7517 269.6748 15.59164185 12250

Live tracking and technical data element details for STARLINK-1323 (NORAD 45553). STARLINK-1323 can be tracked NOW for your location showing map with azimuth and elevation plus other details from your city location.

Track the satellite on the map from your city or location and see movement details for azimuth, elevation, latitude, longitude, range, height, and movement on the map or in text.







IsCatalogInMostPopularTable: catalog: 45553, numindb: 22
Update: records affected: 1



GetName: 45553 STARLINK-1323

Hit Count: updated at: Mon, 06 Jul 2020 05:12:59 GMT